Weather History for Cody, WY

Change the Weather History Date:

Friday, March 15, 2013

  Actual Average Record
Temperature  
Mean Temperature 54 °F -  
Max Temperature 64 °F 47 °F 69 °F (1934)
Min Temperature 42 °F 23 °F -5 °F (1943)
Degree Days  
Heating Degree Days 11    
Growing Degree Days 4 (Base 50)    
Moisture  
Dew Point 19 °F    
Average Humidity 24    
Maximum Humidity 49    
Minimum Humidity 16    
Precipitation  
Precipitation 0.00 in - - ()
Sea Level Pressure  
Sea Level Pressure 29.93 in    
Wind  
Wind Speed 12 mph (WNW)    
Max Wind Speed 22 mph    
Max Gust Speed 38 mph    
Visibility 10 miles    
Events      
Averages and records for this station are not official NWS values.
T = Trace of Precipitation, MM = Missing Value Source: NWS Daily Summary

Daily Weather History Graph

Daily Weather History Graph

Search for Another Location

Airport:

Trip Planner

Search our weather history database for the weather conditions in past years. The results will help you decide how hot, cold, wet, or windy it might be!

Date:

Astronomy

Mar. 15, 2013 Rise Set
Actual Time 7:27 AM MDT 7:22 PM MDT
Civil Twilight 6:58 AM MDT 7:51 PM MDT
Nautical Twilight 6:25 AM MDT 8:25 PM MDT
Astronomical Twilight 5:50 AM MDT 9:00 PM MDT
Moon 9:09 AM MDT (3/15) 11:51 PM MDT (3/15)
Length of Visible Light 12h 52m
Length of Day
11h 54m
Waxing Crescent, 16% of the Moon is Illuminated
Mar 15
Waxing Crescent
Mar 19
First Quarter
Mar 27
Full
Apr 2
Last Quarter
Apr 10
New

Hourly Weather History & Observations

Time (MDT) Temp. Windchill Dew Point Humidity Pressure Visibility Wind Dir Wind Speed Gust Speed Precip Events Conditions
12:16 AM 55.4 °F - 17.6 °F 23% 30.00 in 10.0 mi SSE 5.8 mph - N/A   Clear
12:35 AM 50.0 °F - 14.0 °F 24% 29.99 in 10.0 mi SE 8.1 mph - N/A   Clear
1:15 AM 55.4 °F - 17.6 °F 23% 29.97 in 10.0 mi SE 10.4 mph - N/A   Clear
1:35 AM 48.2 °F - 14.0 °F 25% 29.96 in 10.0 mi South 8.1 mph - N/A   Clear
1:55 AM 50.0 °F - 17.6 °F 28% 29.95 in 10.0 mi SE 9.2 mph - N/A   Clear
2:35 AM 53.6 °F - 17.6 °F 24% 29.96 in 10.0 mi WSW 13.8 mph 18.4 mph N/A   Clear
2:55 AM 57.2 °F - 19.4 °F 23% 29.94 in 10.0 mi West 12.7 mph 18.4 mph N/A   Clear
3:15 AM 59.0 °F - 17.6 °F 20% 29.94 in 10.0 mi West 19.6 mph 31.1 mph N/A   Clear
3:35 AM 57.2 °F - 17.6 °F 21% 29.93 in 10.0 mi NW 9.2 mph 26.5 mph N/A   Clear
3:55 AM 57.2 °F - 17.6 °F 21% 29.93 in 10.0 mi West 19.6 mph 32.2 mph N/A   Clear
4:15 AM 57.2 °F - 19.4 °F 23% 29.92 in 10.0 mi West 21.9 mph 31.1 mph N/A   Clear
4:35 AM 57.2 °F - 21.2 °F 25% 29.92 in 10.0 mi West 13.8 mph 26.5 mph N/A   Clear
4:55 AM 57.2 °F - 19.4 °F 23% 29.92 in 10.0 mi West 9.2 mph 18.4 mph N/A   Clear
5:15 AM 55.4 °F - 21.2 °F 26% 29.94 in 10.0 mi West 10.4 mph 20.7 mph N/A   Clear
5:35 AM 55.4 °F - 19.4 °F 25% 29.94 in 10.0 mi WSW 12.7 mph 24.2 mph N/A   Clear
5:55 AM 55.4 °F - 21.2 °F 26% 29.93 in 10.0 mi West 9.2 mph 16.1 mph N/A   Clear
6:15 AM 55.4 °F - 21.2 °F 26% 29.92 in 10.0 mi West 8.1 mph 23.0 mph N/A   Clear
6:35 AM 55.4 °F - 21.2 °F 26% 29.92 in 10.0 mi West 12.7 mph 25.3 mph N/A   Clear
6:55 AM 55.4 °F - 19.4 °F 25% 29.92 in 10.0 mi West 11.5 mph 21.9 mph N/A   Clear
7:15 AM 55.4 °F - 19.4 °F 25% 29.92 in 10.0 mi West 15.0 mph 26.5 mph N/A   Clear
7:35 AM 55.4 °F - 19.4 °F 25% 29.93 in 10.0 mi West 12.7 mph 23.0 mph N/A   Clear
8:15 AM 55.4 °F - 19.4 °F 25% 29.93 in 10.0 mi West 11.5 mph - N/A   Clear
8:35 AM 55.4 °F - 19.4 °F 25% 29.93 in 10.0 mi West 13.8 mph 23.0 mph N/A   Clear
8:55 AM 55.4 °F - 19.4 °F 25% 29.93 in 10.0 mi West 15.0 mph 20.7 mph N/A   Clear
9:15 AM 55.4 °F - 19.4 °F 25% 29.94 in 10.0 mi West 15.0 mph 25.3 mph N/A   Clear
9:55 AM 57.2 °F - 21.2 °F 25% 29.93 in 10.0 mi West 11.5 mph 19.6 mph N/A   Clear
10:15 AM 57.2 °F - 21.2 °F 25% 29.93 in 10.0 mi West 20.7 mph 29.9 mph N/A   Clear
10:35 AM 59.0 °F - 19.4 °F 22% 29.94 in 10.0 mi WSW 13.8 mph 21.9 mph N/A   Clear
10:55 AM 59.0 °F - 19.4 °F 22% 29.94 in 10.0 mi West 17.3 mph 27.6 mph N/A   Clear
11:15 AM 59.0 °F - 19.4 °F 22% 29.93 in 10.0 mi WSW 17.3 mph 27.6 mph N/A   Clear
11:35 AM 59.0 °F - 19.4 °F 22% 29.94 in 10.0 mi WSW 16.1 mph 24.2 mph N/A   Clear
11:55 AM 60.8 °F - 19.4 °F 20% 29.93 in 10.0 mi West 15.0 mph 24.2 mph N/A   Clear
12:15 PM 62.6 °F - 19.4 °F 19% 29.93 in 10.0 mi WSW 17.3 mph 25.3 mph N/A   Clear
12:35 PM 62.6 °F - 19.4 °F 19% 29.92 in 10.0 mi West 20.7 mph 36.8 mph N/A   Clear
12:55 PM 62.6 °F - 19.4 °F 19% 29.91 in 10.0 mi WSW 20.7 mph 36.8 mph N/A   Clear
1:15 PM 62.6 °F - 19.4 °F 19% 29.91 in 10.0 mi West 20.7 mph 29.9 mph N/A   Clear
1:35 PM 64.4 °F - 17.6 °F 16% 29.90 in 10.0 mi West 17.3 mph 27.6 mph N/A   Clear
1:55 PM 62.6 °F - 17.6 °F 18% 29.89 in 10.0 mi West 19.6 mph 38.0 mph N/A   Clear
2:15 PM 64.4 °F - 17.6 °F 16% 29.89 in 10.0 mi WSW 13.8 mph 29.9 mph N/A   Clear
2:35 PM 62.6 °F - 15.8 °F 16% 29.88 in 10.0 mi West 18.4 mph 32.2 mph N/A   Clear
2:55 PM 64.4 °F - 17.6 °F 16% 29.88 in 10.0 mi West 18.4 mph 29.9 mph N/A   Clear
3:15 PM 62.6 °F - 15.8 °F 16% 29.88 in 10.0 mi West 12.7 mph 26.5 mph N/A   Clear
3:35 PM 60.8 °F - 15.8 °F 17% 29.88 in 10.0 mi West 13.8 mph 25.3 mph N/A   Clear
3:55 PM 60.8 °F - 15.8 °F 17% 29.89 in 10.0 mi West 13.8 mph 26.5 mph N/A   Clear
4:15 PM 60.8 °F - 15.8 °F 17% 29.89 in 10.0 mi West 17.3 mph 23.0 mph N/A   Clear
4:35 PM 60.8 °F - 15.8 °F 17% 29.89 in 10.0 mi WNW 9.2 mph 21.9 mph N/A   Clear
4:55 PM 60.8 °F - 15.8 °F 17% 29.90 in 10.0 mi NW 9.2 mph - N/A   Clear
5:15 PM 60.8 °F - 14.0 °F 16% 29.90 in 10.0 mi WSW 12.7 mph 16.1 mph N/A   Clear
5:35 PM 60.8 °F - 15.8 °F 17% 29.91 in 10.0 mi WNW 9.2 mph - N/A   Clear
5:55 PM 60.8 °F - 15.8 °F 17% 29.91 in 10.0 mi NW 11.5 mph 18.4 mph N/A   Partly Cloudy
6:15 PM 60.8 °F - 15.8 °F 17% 29.93 in 10.0 mi North 12.7 mph 16.1 mph N/A   Mostly Cloudy
6:35 PM 55.4 °F - 17.6 °F 23% 29.93 in 10.0 mi NNE 9.2 mph - N/A   Overcast
6:55 PM 53.6 °F - 15.8 °F 22% 29.94 in 10.0 mi NNE 13.8 mph - N/A   Overcast
7:15 PM 53.6 °F - 15.8 °F 22% 29.95 in 10.0 mi North 11.5 mph - N/A   Overcast
7:35 PM 51.8 °F - 17.6 °F 26% 29.95 in 10.0 mi NNE 16.1 mph 19.6 mph N/A   Overcast
7:55 PM 51.8 °F - 17.6 °F 26% 29.96 in 10.0 mi NNE 9.2 mph - N/A   Scattered Clouds
8:15 PM 50.0 °F - 17.6 °F 28% 29.97 in 10.0 mi NNE 6.9 mph - N/A   Partly Cloudy
8:35 PM 48.2 °F - 17.6 °F 30% 29.97 in 10.0 mi North 5.8 mph - N/A   Partly Cloudy
8:55 PM 48.2 °F - 17.6 °F 30% 29.98 in 10.0 mi NNW 5.8 mph - N/A   Partly Cloudy
9:15 PM 48.2 °F - 17.6 °F 30% 29.98 in 10.0 mi NNW 8.1 mph - N/A   Scattered Clouds
9:35 PM 48.2 °F - 19.4 °F 32% 29.99 in 10.0 mi NNE 12.7 mph - N/A   Clear
9:55 PM 46.4 °F 42.9 °F 21.2 °F 37% 29.99 in 10.0 mi NNE 6.9 mph - N/A   Clear
10:15 PM 44.6 °F 40.2 °F 21.2 °F 39% 29.99 in 10.0 mi NNE 8.1 mph - N/A   Clear
10:35 PM 44.6 °F 40.2 °F 24.8 °F 46% 29.99 in 10.0 mi NNW 8.1 mph - N/A   Clear
10:55 PM 44.6 °F 39.7 °F 24.8 °F 46% 29.99 in 10.0 mi NNW 9.2 mph - N/A   Clear
11:55 PM 42.8 °F 38.6 °F 24.8 °F 49% 30.01 in 10.0 mi NNW 6.9 mph - N/A   Overcast